Location: Sungai Dangang
(2.7500°N, 113.8333°E)
Time: 19:06:12
(UTC+00:00)

Cosmos 2263 Rocket - Pass Details

Date: 16 May 2021
Orbit: 822 x 850 km, 71.0° (Epoch: 20 June)

Event Time Altitude Azimuth Distance (km) Brightness Sun altitude
Rises 21:10:15 0° 322° (NW) 3,396 5.2 -15.7°
Reaches altitude 10° 21:13:05 10° 309° (NW) 2,465 4.3 -15.1°
Maximum altitude 21:17:39 25° 255° (WSW) 1,635 3.1 -14.0°
Drops below altitude 10° 21:22:15 10° 201° (SSW) 2,471 4.2 -12.9°
Sets 21:25:07 0° 188° (S) 3,407 5.1 -12.2°
